Location: Chuathbaluk
(61.5726°N, 159.2454°W)
Time: 02:13:09
(UTC+00:00)

TIGRISAT - Pass Details

Date: 18 January 2021
Orbit: 605 x 688 km, 97.7° (Epoch: 05 March)

Event Time Altitude Azimuth Distance (km) Brightness Sun altitude
Rises 18:18:23 0° 198° (SSW) 2,862 ? -7.7°
Reaches altitude 10° 18:20:50 10° 212° (SSW) 1,968 ? -7.4°
Maximum altitude 18:24:26 26° 269° (W) 1,228 ? -7.1°
Drops below altitude 10° 18:28:06 10° 327° (NNW) 2,008 ? -6.7°
Enters shadow 18:29:55 - 337° (NNW) 2,655 ? -6.5°
